Location: Heidgraben
(53.7081°N, 9.6576°E)
Time: 10:57:59
(UTC+00:00)

Cosmos 2181 Rocket - Pass Details

Date: 05 July 2020
Orbit: 951 x 1015 km, 82.9° (Epoch: 05 August)

Event Time Altitude Azimuth Distance (km) Brightness Sun altitude
Rises 21:18:26 0° 347° (NNW) 3,744 8.8 -8.8°
Reaches altitude 10° 21:21:01 10° 344° (NNW) 2,782 7.9 -9.0°
Maximum altitude 21:27:16 60° 267° (W) 1,126 4.5 -9.4°
Drops below altitude 10° 21:33:23 10° 189° (S) 2,720 5.9 -9.8°
Enters shadow 21:34:16 - 188° (S) 3,049 6.1 -9.9°
